Burlington, NC

7:25 PM EDT on May 23, 2018 (GMT -0400)
Burlington-Alamance Regional

Weather History for KBUY - January, 2013

Change the Weather History Date:

Wednesday, January 16, 2013

  Actual Average Record
Temperature  
Mean Temperature 44 °F -  
Max Temperature 50 °F 46 °F 57 °F (2016)
Min Temperature 39 °F 25 °F 16 °F (2018)
Degree Days  
Heating Degree Days 20    
Moisture  
Dew Point 43 °F    
Average Humidity 95    
Maximum Humidity 100    
Minimum Humidity 87    
Precipitation  
Precipitation 0.24 in - - ()
Sea Level Pressure  
Sea Level Pressure 30.02 in    
Wind  
Wind Speed 3 mph (NNE)    
Max Wind Speed 10 mph    
Max Gust Speed -    
Visibility 5 miles    
Events Rain    
Averages and records for this station are not official NWS values.
T = Trace of Precipitation, MM = Missing Value Source: NWS Daily Summary

Daily Weather History Graph

Daily Weather History Graph

Search for Another Location

Airport or City:

Astronomy

Jan. 16, 2013 Rise Set
Actual Time 7:27 AM EST 5:28 PM EST
Civil Twilight 6:59 AM EST 5:56 PM EST
Nautical Twilight 6:28 AM EST 6:27 PM EST
Astronomical Twilight 5:57 AM EST 6:58 PM EST
Moon 10:14 AM EST (1/16) 11:05 PM EST (1/16)
Length of Visible Light 10h 56m
Length of Day
10h 00m
Waxing Crescent, 28% of the Moon is Illuminated
Jan 16
Waxing Crescent
Jan 18
First Quarter
Jan 26
Full
Feb 3
Last Quarter
Feb 10
New

Hourly Weather History & Observations

Time (EST) Temp. Windchill Dew Point Humidity Pressure Visibility Wind Dir Wind Speed Gust Speed Precip Events Conditions
12:01 AM 42.8 °F 41.1 °F 41.0 °F 93% 30.08 in 3.0 mi North 3.5 mph - N/A   Overcast
12:30 AM 42.8 °F 41.1 °F 41.0 °F 93% 30.05 in 2.5 mi NE 3.5 mph - N/A   Overcast
12:46 AM 42.8 °F 40.1 °F 42.8 °F 100% 30.06 in 3.0 mi NNW 4.6 mph - N/A   Overcast
1:38 AM 42.8 °F 41.1 °F 41.0 °F 93% 30.06 in 1.8 mi North 3.5 mph - N/A   Overcast
1:45 AM 42.8 °F 41.1 °F 41.0 °F 93% 30.05 in 2.0 mi North 3.5 mph - N/A   Overcast
1:54 AM 42.1 °F 40.2 °F 41.0 °F 96% 30.06 in 2.0 mi North 3.5 mph - N/A   Overcast
2:54 AM 41.0 °F 39.0 °F 41.0 °F 100% 30.07 in 2.0 mi Variable 3.5 mph - N/A   Overcast
3:11 AM 41.0 °F 36.4 °F 41.0 °F 100% 30.06 in 3.0 mi North 6.9 mph - N/A   Overcast
3:54 AM 41.0 °F 38.0 °F 39.9 °F 96% 30.05 in 3.0 mi Variable 4.6 mph - 0.01 in Rain Light Rain
4:02 AM 41.0 °F 37.1 °F 39.2 °F 93% 30.05 in 2.5 mi North 5.8 mph - 0.00 in Rain Light Rain
4:10 AM 39.2 °F 32.5 °F 39.2 °F 100% 30.05 in 3.0 mi NNW 10.4 mph - 0.00 in Rain Light Rain
4:54 AM 39.0 °F 33.4 °F 37.9 °F 96% 30.04 in 5.0 mi North 8.1 mph - 0.04 in Rain Light Rain
5:12 AM 39.2 °F 35.9 °F 37.4 °F 93% 30.02 in 6.0 mi NNE 4.6 mph - 0.00 in Rain Light Rain
5:54 AM 39.0 °F 35.7 °F 37.9 °F 96% 30.02 in 10.0 mi NE 4.6 mph - 0.01 in   Overcast
6:02 AM 39.2 °F 35.0 °F 37.4 °F 93% 30.02 in 10.0 mi NNE 5.8 mph - N/A   Overcast
6:17 AM 39.2 °F 35.0 °F 37.4 °F 93% 30.02 in 10.0 mi NNE 5.8 mph - N/A   Overcast
7:24 AM 39.2 °F 37.0 °F 37.4 °F 93% 30.03 in 9.0 mi NE 3.5 mph - 0.00 in Rain Light Rain
7:42 AM 39.2 °F 37.0 °F 39.2 °F 100% 30.03 in 5.0 mi NNE 3.5 mph - 0.01 in Rain Light Rain
7:54 AM 39.9 °F - 39.0 °F 97% 30.04 in 10.0 mi Calm Calm - 0.01 in Rain Light Rain
8:54 AM 41.0 °F - 39.9 °F 96% 30.04 in 10.0 mi Calm Calm - 0.00 in   Overcast
9:34 AM 42.8 °F - 39.2 °F 87% 30.04 in 5.0 mi Calm Calm - 0.00 in Rain Light Rain
9:54 AM 42.1 °F - 39.9 °F 92% 30.06 in 8.0 mi Calm Calm - 0.01 in Rain Light Rain
10:54 AM 42.1 °F 37.7 °F 39.9 °F 92% 30.07 in 6.0 mi North 6.9 mph - 0.00 in Rain Light Rain
11:39 AM 42.8 °F - 39.2 °F 87% 30.06 in 1.8 mi Calm Calm - 0.03 in Rain Rain
11:47 AM 42.8 °F - 39.2 °F 87% 30.04 in 2.0 mi Calm Calm - 0.05 in Rain Light Rain
11:54 AM 42.1 °F 40.2 °F 39.9 °F 92% 30.04 in 2.5 mi East 3.5 mph - 0.05 in Rain Light Rain
12:20 PM 42.8 °F - 41.0 °F 93% 30.02 in 1.2 mi Calm Calm - 0.05 in Rain Heavy Rain
12:37 PM 42.8 °F - 41.0 °F 93% 30.01 in 3.0 mi Calm Calm - 0.08 in Rain Light Rain
12:50 PM 42.8 °F - 42.8 °F 100% 30.01 in 7.0 mi Calm Calm - 0.08 in Rain Light Rain
12:54 PM 43.0 °F - 41.0 °F 93% 30.01 in 9.0 mi Calm Calm - 0.09 in Rain Light Rain
1:54 PM 45.0 °F 42.6 °F 43.0 °F 93% 29.97 in 10.0 mi ESE 4.6 mph - 0.00 in   Overcast
3:54 PM 48.0 °F - 46.9 °F 96% 29.98 in 10.0 mi South 4.6 mph - 0.00 in   Overcast
4:54 PM 50.0 °F - 48.0 °F 93% 29.99 in 10.0 mi West 4.6 mph - N/A   Overcast
5:40 PM 50.0 °F - 48.2 °F 94% 29.99 in 10.0 mi Calm Calm - N/A   Overcast
5:54 PM 50.0 °F - 48.0 °F 93% 29.99 in 10.0 mi Calm Calm - N/A   Overcast
6:45 PM 48.2 °F - 48.2 °F 100% 29.99 in 10.0 mi Calm Calm - N/A   Overcast
6:54 PM 48.9 °F - 48.0 °F 97% 30.00 in 10.0 mi Calm Calm - N/A   Overcast
7:54 PM 48.9 °F - 48.0 °F 97% 29.99 in 9.0 mi Calm Calm - N/A   Overcast
8:51 PM 48.2 °F - 48.2 °F 100% 30.00 in 2.0 mi Calm Calm - N/A   Overcast
8:54 PM 48.9 °F - 48.0 °F 97% 30.00 in 2.0 mi Calm Calm - N/A   Overcast
9:03 PM 48.2 °F - 48.2 °F 100% 29.99 in 1.5 mi Calm Calm - N/A   Overcast
9:18 PM 48.2 °F - 48.2 °F 100% 29.99 in 2.5 mi Calm Calm - 0.00 in Rain Light Rain
9:32 PM 48.2 °F - 48.2 °F 100% 29.99 in 1.5 mi Calm Calm - 0.00 in   Overcast
9:47 PM 48.2 °F - 48.2 °F 100% 29.98 in 2.5 mi Calm Calm - 0.00 in   Overcast
9:54 PM 48.9 °F - 48.0 °F 97% 29.99 in 3.0 mi Calm Calm - 0.00 in Rain Light Rain
10:54 PM 48.9 °F - 48.0 °F 97% 29.96 in 5.0 mi Calm Calm - 0.00 in   Overcast
11:30 PM 50.0 °F - 48.2 °F 94% 29.96 in 4.0 mi Calm Calm - 0.01 in Rain Light Rain
11:54 PM 50.0 °F - 48.9 °F 96% 29.97 in 4.0 mi Calm Calm - 0.02 in Rain Light Rain